Location: Newark
(49.5647°N, 8.2922°E)
Time: 09:43:27
(UTC+00:00)

Transit 2A - Pass Details

Date: 22 February 2020
Orbit: 597 x 961 km, 66.7° (Epoch: 28 March)

Event Time Altitude Azimuth Distance (km) Brightness Sun altitude
Rises 13:56:31 0° 242° (WSW) 2,832 10.0 23.2°
Reaches altitude 10° 13:58:53 10° 252° (WSW) 1,938 9.2 22.9°
Maximum altitude 14:02:51 34° 318° (NW) 1,013 6.8 22.5°
Drops below altitude 10° 14:07:00 10° 24° (NNE) 2,033 7.7 22.1°
Sets 14:09:32 0° 34° (NE) 2,993 8.5 21.9°
